Wind_Speed
12 11 10 8 6 5 4 3 3 2 2 2 2 1 1 1 1 2 3 3 3 3 4 4 4 5 6 6 7 7 7 7 9 10 9 9 9 9 9 9 9 8 8
13 12 10 9 7 5 5 4 3 2 1 2 2 1 2 2 2 3 3 3 3 4 4 4 4 5 5 6 6 7 8 9 8 8 9 10 10 10 10 11 11 11 10
13 12 10 9 7 6 5 4 3 2 2 2 1 1 1 2 2 2 2 2 3 3 4 4 4 4 5 5 6 6 6 8 9 8 9 10 11 10 10 10 10 11 11
13 12 10 9 8 6 5 4 3 3 2 1 1 1 1 1 1 1 1 1 2 3 4 4 3 4 5 5 5 5 5 6 7 9 9 9 11 11 11 12 11 11 11
14 12 11 10 9 7 6 4 4 3 2 1 1 1 1 0 1 2 2 2 2 3 3 3 3 3 4 5 5 5 5 6 6 7 8 9 10 11 11 12 12 12 12
15 13 11 11 10 8 7 6 4 3 2 1 1 0 0 0 1 2 2 2 2 3 3 3 2 3 4 5 5 5 5 6 6 6 6 7 9 10 11 12 12 13 14
16 14 12 12 10 9 8 7 5 4 2 1 0 1 1 1 1 1 2 2 2 3 3 3 3 3 4 5 5 6 6 6 6 6 7 7 8 9 10 11 11 12 13
16 15 13 12 11 10 9 8 6 5 3 2 1 1 2 2 1 1 2 3 3 3 4 4 3 3 4 5 6 6 6 7 6 7 7 8 8 9 9 10 11 12 12
17 16 14 13 12 11 10 8 7 5 4 3 2 2 2 2 2 2 2 3 3 3 4 4 4 4 4 5 6 6 7 7 7 7 7 8 8 9 9 10 11 11 12
17 17 15 15 13 12 11 10 8 6 5 4 3 3 3 3 3 3 3 3 4 4 4 5 5 5 6 6 7 7 8 8 8 8 8 8 9 9 9 10 11 12 12
18 17 16 16 15 14 12 11 10 8 7 6 5 4 4 4 4 4 3 4 5 5 6 6 7 7 7 8 9 9 10 9 9 9 9 10 10 10 11 11 11 12 12
17 17 17 16 16 15 14 13 11 9 8 7 6 6 5 5 6 6 6 7 7 8 8 8 9 9 10 10 10 11 11 11 11 12 11 12 12 12 12 12 13 13 13
17 17 17 17 17 16 15 14 13 11 10 9 8 8 8 8 8 9 9 9 10 10 11 11 11 12 12 12 13 13 13 13 14 14 14 14 15 15 15 14 15 15 15
18 18 17 17 18 17 16 15 14 13 12 11 10 10 10 10 11 11 12 12 13 13 13 14 14 14 14 15 15 15 16 16 16 16 16 16 17 17 17 17 17 17 17
17 16 17 17 17 17 16 16 15 14 14 13 13 13 13 13 13 14 14 15 16 16 16 17 17 17 17 17 18 18 19 19 19 19 19 20 20 20 20 20 20 20 20
18 17 18 18 18 17 18 17 16 16 15 15 15 16 16 16 16 17 18 18 19 20 20 20 20 21 21 21 21 22 22 22 22 22 23 23 23 24 24 24 23 23 23
18 18 19 18 18 18 18 18 18 18 17 17 18 18 18 19 20 21 21 22 22 23 24 23 23 24 25 25 25 25 25 25 25 25 25 26 26 26 26 27 27 27 27
19 19 19 18 18 17 18 19 19 19 19 20 20 21 22 22 23 24 24 24 25 26 26 27 27 27 27 28 28 28 28 28 28 29 29 29 29 29 29 29 30 30 30
17 17 17 17 17 18 19 20 20 21 22 22 23 24 25 26 26 27 27 27 28 28 29 30 30 31 30 31 31 32 32 32 32 33 33 33 33 33 33 33 33 33 33
16 17 17 18 19 20 21 21 22 23 23 24 25 26 27 28 29 29 29 30 31 31 32 32 33 34 34 35 35 35 35 36 36 36 36 36 36 36 37 36 36 36 36
18 19 20 20 21 21 22 23 24 25 26 27 27 28 29 30 30 32 32 33 34 35 36 36 37 37 37 38 37 37 37 37 37 38 38 39 39 39 39 39 38 39 39
18 19 20 21 21 23 24 25 26 27 28 29 29 30 31 31 32 33 34 36 37 38 39 40 39 40 40 41 41 41 40 40 40 40 41 41 41 41 41 41 41 41 41
18 19 21 22 23 24 26 27 28 29 29 30 31 32 33 34 35 36 37 38 38 39 40 41 41 42 43 43 43 42 43 43 43 43 44 43 44 44 44 43 43 43 43
21 21 23 24 25 25 25 26 28 29 30 31 32 33 35 36 37 38 38 38 39 40 41 42 43 44 44 44 45 45 46 46 46 46 48 47 46 47 47 47 46 46 46
20 21 22 23 24 25 26 28 29 30 31 32 33 35 36 37 38 39 40 40 41 41 43 44 44 44 45 46 47 48 49 49 48 48 49 50 50 50 50 50 50 49 49
20 21 23 24 25 26 27 29 31 31 33 34 35 37 38 39 41 42 42 42 43 43 44 45 45 46 47 47 48 50 50 51 51 51 51 53 53 53 52 51 52 52 52
Wind_Direction
243 245 243 242 238 232 226 209 201 198 202 216 223 226 252 290 287 277 278 274 280 286 288 288 285 271 267 268 263 258 259 264 257 253 250 250 252 252 253 254 254 254 254
244 244 241 240 231 223 219 215 208 197 202 215 228 230 252 297 296 268 267 263 277 289 290 293 295 291 279 275 272 267 261 259 264 259 254 253 256 256 254 255 254 255 255
239 238 235 237 228 217 216 214 214 208 210 219 238 243 263 291 283 273 272 278 291 295 292 289 297 302 294 291 282 274 267 265 261 260 258 254 255 258 256 256 256 255 254
234 230 229 232 229 221 216 221 220 213 213 211 239 255 282 298 301 291 296 312 312 308 303 297 297 302 307 309 305 291 279 275 272 263 262 262 261 260 258 257 258 257 256
228 225 225 226 226 223 222 222 219 214 214 219 244 259 272 326 335 326 322 337 342 335 322 321 328 322 320 322 315 308 301 296 299 284 267 269 269 264 262 261 260 261 262
226 223 222 223 225 224 222 221 217 213 217 227 242 319 314 345 354 350 336 342 339 340 337 326 327 335 339 337 331 324 321 318 316 308 291 284 281 274 266 268 269 266 266
225 221 221 223 225 225 225 223 215 215 220 232 283 321 316 333 352 9 10 0 347 347 349 339 335 336 342 343 339 334 329 324 318 316 308 298 292 285 276 273 275 274 271
221 219 220 223 224 223 221 221 214 215 223 239 260 285 315 328 347 4 2 353 347 345 347 349 340 340 341 342 347 342 336 331 327 320 314 307 299 292 285 283 280 279 277
218 215 218 219 219 218 219 220 217 220 223 233 245 268 299 328 327 333 344 348 345 345 344 342 341 340 336 335 335 337 335 329 327 324 321 317 310 300 288 285 284 284 286
216 215 218 220 219 218 219 222 222 221 229 239 253 265 280 298 312 323 337 345 344 334 332 331 328 327 326 322 322 323 324 325 322 320 316 314 311 307 300 292 288 285 286
218 216 217 218 218 217 219 223 225 224 232 241 252 264 277 291 297 308 321 320 320 320 321 322 320 317 316 316 315 313 314 314 314 314 313 311 309 307 303 298 294 292 289
218 216 217 219 220 219 220 222 225 229 235 240 248 258 270 281 291 297 304 307 309 310 311 313 314 312 310 309 309 307 306 306 305 306 306 305 305 304 302 299 297 296 293
217 218 220 222 221 221 224 225 228 235 239 245 252 259 266 275 283 290 295 300 302 302 304 306 307 307 305 304 303 304 303 302 301 299 299 299 300 300 298 296 296 295 293
222 222 222 220 222 224 226 229 232 237 243 249 254 260 266 274 280 285 290 294 298 299 301 302 302 301 301 299 298 300 300 300 298 297 296 296 296 296 295 294 293 292 291
221 222 221 221 221 224 228 233 236 241 246 251 256 261 268 274 279 283 288 291 293 295 297 298 298 297 296 296 296 295 296 297 296 296 295 294 294 293 292 291 291 289 288
220 222 222 222 227 230 233 234 239 244 249 254 259 264 270 275 279 282 285 288 291 292 293 294 295 294 294 295 295 293 292 293 292 292 291 292 292 291 291 289 288 287 286
223 224 226 229 233 235 234 237 242 248 253 258 263 267 270 274 278 281 284 288 290 291 292 293 293 294 294 293 293 292 291 290 289 288 288 289 289 288 288 287 286 285 284
225 226 228 232 235 236 239 243 248 252 256 261 265 269 272 275 278 281 284 287 289 289 290 291 292 293 292 291 291 290 289 288 287 286 286 286 286 286 286 285 284 283 282
225 226 228 232 237 241 246 249 253 257 261 264 267 270 272 276 279 280 282 285 286 288 288 289 290 291 290 290 290 289 287 287 286 285 284 284 284 284 284 283 282 281 280
229 233 235 238 242 246 251 254 258 261 264 268 271 274 275 278 280 280 282 284 285 286 287 288 288 290 290 289 289 289 287 287 286 285 284 283 284 284 283 282 281 281 280
235 239 241 244 247 252 257 259 262 265 268 271 274 276 278 280 281 282 283 284 286 286 286 288 287 288 289 288 288 288 287 286 286 285 284 283 283 283 283 282 280 280 279
243 247 248 251 255 259 262 263 267 268 270 272 275 277 278 279 282 284 284 285 286 286 286 287 286 287 287 287 286 286 287 285 284 284 284 284 283 282 282 281 280 280 279
249 251 253 257 260 262 264 265 268 270 272 274 275 278 280 281 283 284 285 285 286 286 287 287 286 286 286 286 286 286 286 285 284 283 282 282 281 281 281 280 279 279 278
257 259 261 263 265 267 269 270 273 272 275 278 279 280 282 283 284 285 286 286 286 286 287 288 288 287 286 286 286 285 285 285 284 283 282 281 280 280 280 281 280 279 278
263 263 265 267 269 271 273 274 276 277 279 280 281 282 283 285 287 287 287 286 285 286 287 288 289 288 287 287 286 285 285 285 284 282 282 282 280 279 279 280 279 278 277
270 271 270 271 274 275 276 277 278 280 281 281 281 283 284 286 287 288 288 288 287 287 288 288 287 287 287 287 287 286 285 285 284 283 282 282 282 281 280 280 279 278 277
Height
5886 5887 5887 5888 5889 5889 5890 5890 5891 5891 5891 5891 5892 5892 5893 5892 5893 5893 5893 5894 5894 5895 5895 5895 5896 5896 5897 5897 5898 5898 5899 5899 5900 5900 5901 5902 5903 5903 5904 5904 5905 5905 5906
5884 5885 5886 5887 5888 5889 5889 5890 5890 5891 5891 5891 5892 5892 5892 5893 5893 5893 5893 5893 5894 5894 5895 5895 5895 5895 5896 5896 5897 5897 5897 5898 5898 5899 5899 5900 5901 5901 5902 5902 5903 5904 5904
5882 5884 5885 5886 5887 5888 5888 5889 5890 5890 5890 5891 5891 5891 5892 5892 5892 5892 5893 5893 5893 5894 5894 5894 5895 5895 5895 5895 5895 5895 5896 5896 5897 5897 5897 5898 5899 5899 5900 5900 5901 5902 5902
5881 5882 5884 5885 5886 5887 5887 5888 5889 5890 5890 5890 5891 5891 5891 5891 5892 5892 5892 5892 5893 5893 5893 5894 5894 5894 5894 5894 5894 5894 5895 5895 5895 5895 5896 5896 5897 5897 5898 5898 5899 5899 5900
5879 5881 5882 5884 5885 5886 5887 5888 5888 5889 5890 5890 5890 5890 5891 5891 5891 5891 5892 5892 5892 5892 5893 5893 5893 5893 5893 5893 5893 5893 5893 5893 5893 5893 5894 5894 5895 5895 5896 5896 5897 5897 5898
5877 5879 5881 5883 5884 5885 5886 5887 5888 5888 5889 5889 5890 5890 5890 5890 5891 5891 5891 5891 5892 5892 5892 5892 5893 5893 5893 5893 5893 5893 5893 5893 5892 5892 5892 5893 5893 5893 5894 5894 5895 5895 5896
5874 5877 5879 5881 5883 5884 5885 5886 5887 5888 5888 5889 5889 5890 5890 5890 5890 5890 5891 5891 5891 5892 5892 5892 5892 5892 5892 5892 5893 5892 5892 5892 5892 5891 5891 5891 5891 5891 5891 5892 5892 5892 5893
5872 5875 5878 5879 5881 5883 5884 5885 5886 5887 5888 5888 5889 5889 5890 5891 5890 5890 5890 5890 5891 5891 5891 5891 5892 5892 5892 5892 5892 5892 5892 5891 5890 5890 5890 5890 5889 5889 5889 5889 5889 5890 5890
5869 5872 5875 5877 5879 5881 5883 5884 5885 5886 5887 5888 5888 5889 5890 5890 5890 5890 5890 5890 5890 5890 5891 5891 5891 5891 5891 5891 5891 5891 5891 5890 5890 5889 5889 5888 5887 5887 5887 5887 5887 5887 5887
5867 5870 5873 5875 5878 5880 5881 5883 5884 5885 5886 5887 5888 5888 5889 5889 5889 5890 5890 5890 5890 5890 5890 5890 5890 5890 5890 5890 5890 5890 5889 5889 5888 5888 5887 5886 5886 5885 5884 5884 5884 5884 5883
5865 5868 5870 5873 5876 5878 5880 5882 5883 5884 5885 5886 5887 5887 5888 5888 5888 5889 5889 5889 5889 5889 5889 5889 5889 5889 5889 5889 5888 5888 5887 5887 5886 5886 5885 5884 5884 5883 5882 5882 5881 5881 5880
5862 5865 5868 5871 5874 5876 5878 5880 5881 5883 5884 5885 5885 5886 5887 5887 5887 5888 5888 5888 5888 5888 5888 5887 5887 5887 5887 5887 5886 5886 5885 5884 5884 5883 5883 5882 5881 5880 5880 5879 5878 5878 5877
5860 5863 5866 5868 5871 5873 5876 5878 5879 5881 5882 5883 5884 5885 5885 5885 5886 5886 5886 5886 5886 5886 5886 5885 5885 5885 5885 5884 5883 5883 5882 5882 5881 5880 5879 5879 5878 5877 5876 5876 5875 5874 5873
5857 5860 5863 5866 5868 5871 5873 5875 5877 5879 5880 5881 5882 5882 5883 5883 5884 5884 5884 5884 5884 5883 5883 5883 5882 5882 5882 5881 5880 5880 5879 5878 5877 5877 5876 5875 5874 5873 5873 5872 5871 5870 5869
5854 5857 5860 5863 5865 5867 5870 5872 5874 5876 5877 5879 5879 5880 5881 5881 5881 5881 5881 5881 5881 5880 5880 5879 5879 5878 5878 5877 5876 5876 5875 5874 5873 5872 5871 5870 5870 5869 5868 5867 5866 5865 5864
5851 5854 5857 5859 5862 5864 5867 5869 5871 5873 5874 5875 5876 5877 5877 5878 5878 5878 5877 5877 5876 5876 5875 5875 5875 5874 5873 5872 5872 5871 5870 5869 5868 5867 5866 5865 5864 5863 5862 5862 5861 5860 5859
5848 5851 5853 5856 5859 5861 5863 5865 5867 5869 5870 5872 5873 5873 5873 5874 5874 5873 5873 5872 5872 5871 5870 5870 5869 5869 5867 5867 5866 5865 5864 5863 5862 5861 5860 5859 5858 5857 5856 5855 5854 5853 5852
5845 5848 5850 5853 5855 5857 5859 5861 5863 5865 5866 5867 5868 5868 5869 5869 5869 5868 5868 5867 5866 5865 5865 5864 5863 5863 5861 5860 5859 5858 5857 5856 5855 5854 5853 5851 5850 5849 5848 5847 5846 5845 5844
5842 5844 5847 5849 5851 5853 5855 5857 5858 5860 5861 5862 5863 5863 5863 5863 5862 5862 5861 5861 5860 5859 5858 5858 5857 5855 5854 5853 5851 5850 5848 5847 5846 5845 5844 5843 5842 5841 5839 5838 5837 5836 5835
5839 5841 5843 5845 5847 5849 5850 5852 5854 5855 5856 5856 5857 5857 5857 5856 5856 5855 5854 5854 5853 5852 5851 5850 5849 5847 5846 5845 5843 5841 5840 5838 5837 5836 5835 5833 5832 5831 5830 5828 5827 5826 5825
5836 5838 5839 5841 5843 5844 5845 5846 5848 5849 5850 5850 5850 5850 5850 5849 5848 5848 5847 5846 5845 5844 5842 5841 5840 5839 5837 5835 5834 5832 5831 5829 5827 5825 5824 5823 5822 5821 5819 5818 5816 5815 5814
5832 5833 5834 5836 5838 5839 5840 5841 5841 5842 5842 5843 5843 5842 5842 5842 5841 5840 5838 5837 5836 5834 5833 5831 5830 5828 5827 5825 5823 5821 5820 5818 5817 5815 5813 5812 5810 5809 5808 5806 5805 5803 5802
5828 5829 5830 5831 5833 5833 5833 5834 5834 5834 5835 5835 5835 5834 5834 5833 5832 5830 5829 5827 5826 5824 5822 5820 5819 5817 5816 5814 5811 5810 5807 5806 5804 5802 5800 5799 5797 5796 5794 5793 5792 5791 5789
5823 5824 5825 5826 5827 5827 5827 5827 5827 5827 5827 5827 5826 5825 5825 5823 5822 5821 5819 5817 5815 5813 5811 5809 5808 5806 5804 5801 5799 5797 5795 5793 5792 5789 5786 5785 5784 5782 5781 5779 5778 5776 5775
5818 5818 5819 5820 5820 5820 5820 5820 5820 5820 5819 5819 5817 5816 5815 5814 5812 5810 5808 5807 5805 5802 5800 5798 5795 5793 5791 5788 5786 5783 5781 5779 5778 5776 5773 5770 5769 5767 5766 5765 5763 5761 5759
5813 5813 5813 5813 5813 5813 5813 5812 5812 5811 5810 5809 5808 5807 5805 5803 5802 5799 5797 5795 5793 5790 5788 5785 5783 5780 5778 5775 5772 5769 5767 5764 5762 5761 5758 5755 5753 5751 5750 5749 5746 5745 5743